CES6595 ZPPP-ZLXN

Flight info

Callsign CES6595
Flight time 2h 2m
Altitude 32100
Route DADO1W/21 DADOL W144 IGNAK W179 OMBON W195 ORUNA V117 IKOMU DCT UPVOP
Aircraft A319/M-SDE2E3FGILRWXY/LB2

Departure

Time 2026-05-01 10:12
Airport Kunming Changshui International Airport (ZPPP)

Arrival

Time 2026-05-01 12:14
Airport Xining Caojiabao International Airport (ZLXN)
Time Latitude Longitude Altitude Speed Heading
2026-05-01 10:02 25.11451 102.93358 6901 ft 3 kts 73°
2026-05-01 10:02 25.11443 102.93338 6902 ft 3 kts 50°
2026-05-01 10:03 25.11436 102.93329 6902 ft 0 kts 39°
2026-05-01 10:05 25.11447 102.93339 6901 ft 4 kts 39°
2026-05-01 10:05 25.11483 102.93372 6901 ft 9 kts 39°
2026-05-01 10:06 25.11536 102.93419 6901 ft 10 kts 39°
2026-05-01 10:06 25.11595 102.93457 6901 ft 10 kts 11°
2026-05-01 10:06 25.11656 102.93408 6901 ft 13 kts 313°
2026-05-01 10:06 25.11739 102.93379 6901 ft 11 kts 31°
2026-05-01 10:07 25.11809 102.93443 6900 ft 15 kts 40°
2026-05-01 10:07 25.11897 102.93517 6900 ft 17 kts 37°
2026-05-01 10:07 25.11996 102.93605 6900 ft 19 kts 39°
2026-05-01 10:07 25.12071 102.93669 6899 ft 21 kts 37°
2026-05-01 10:08 25.12324 102.93888 6898 ft 25 kts 37°
2026-05-01 10:08 25.12497 102.94040 6897 ft 24 kts 37°
2026-05-01 10:08 25.12587 102.94117 6897 ft 25 kts 39°
2026-05-01 10:09 25.12692 102.94209 6897 ft 14 kts 38°
2026-05-01 10:09 25.12774 102.94180 6896 ft 14 kts 315°
2026-05-01 10:09 25.12820 102.94114 6896 ft 0 kts 309°
2026-05-01 10:10 25.12826 102.94106 6896 ft 3 kts 309°
2026-05-01 10:10 25.12877 102.94027 6895 ft 10 kts 283°
2026-05-01 10:11 25.12846 102.93976 6895 ft 7 kts 217°
2026-05-01 10:11 25.12728 102.93874 6896 ft 51 kts 219°
2026-05-01 10:11 25.12280 102.93481 6900 ft 111 kts 218°
2026-05-01 10:11 25.11540 102.92837 6907 ft 158 kts 218°
2026-05-01 10:12 25.10632 102.92048 7419 ft 166 kts 218°
2026-05-01 10:12 25.09796 102.91109 7830 ft 181 kts 230°
2026-05-01 10:12 25.08183 102.88803 8571 ft 195 kts 234°
2026-05-01 10:13 25.07370 102.87575 8983 ft 203 kts 234°
2026-05-01 10:13 25.06499 102.86262 9385 ft 221 kts 234°
2026-05-01 10:13 25.05544 102.84827 9802 ft 244 kts 234°
2026-05-01 10:14 25.03384 102.81613 10539 ft 272 kts 234°
2026-05-01 10:14 25.02228 102.79901 10953 ft 282 kts 234°
2026-05-01 10:14 25.01046 102.78157 11364 ft 285 kts 234°
2026-05-01 10:14 24.99852 102.76402 11773 ft 288 kts 234°
2026-05-01 10:15 24.98641 102.74624 12211 ft 291 kts 234°
2026-05-01 10:15 24.97689 102.72662 12638 ft 293 kts 254°
2026-05-01 10:15 24.97587 102.70427 13077 ft 298 kts 278°
2026-05-01 10:15 24.98394 102.68306 13525 ft 307 kts 302°
2026-05-01 10:16 24.99992 102.66696 13956 ft 320 kts 326°
2026-05-01 10:16 25.02124 102.65903 14367 ft 333 kts 349°
2026-05-01 10:16 25.06742 102.66980 15226 ft 350 kts 18°
2026-05-01 10:17 25.09022 102.67964 15667 ft 352 kts 18°
2026-05-01 10:17 25.13647 102.69983 16545 ft 363 kts 18°
2026-05-01 10:17 25.16033 102.71008 17012 ft 371 kts 17°
2026-05-01 10:18 25.20884 102.73084 17921 ft 377 kts 17°
2026-05-01 10:18 25.23335 102.74140 18398 ft 379 kts 18°
2026-05-01 10:18 25.25805 102.75205 18840 ft 382 kts 18°
2026-05-01 10:19 25.28287 102.76275 19284 ft 385 kts 18°
2026-05-01 10:19 25.30798 102.77355 19567 ft 388 kts 18°
2026-05-01 10:19 25.33324 102.78444 19633 ft 389 kts 18°
2026-05-01 10:20 25.38458 102.80666 19773 ft 412 kts 18°
2026-05-01 10:20 25.41164 102.81834 20136 ft 422 kts 18°
2026-05-01 10:20 25.43920 102.83026 20657 ft 427 kts 18°
2026-05-01 10:20 25.46698 102.84233 21181 ft 431 kts 18°
2026-05-01 10:21 25.49502 102.85454 21692 ft 435 kts 18°
2026-05-01 10:21 25.55172 102.87918 22703 ft 442 kts 18°
2026-05-01 10:21 25.58050 102.89163 23204 ft 445 kts 18°
2026-05-01 10:22 25.63859 102.91674 24043 ft 451 kts 18°
2026-05-01 10:22 25.69730 102.94224 24835 ft 455 kts 18°
2026-05-01 10:23 25.72688 102.95511 25238 ft 457 kts 18°
2026-05-01 10:23 25.78645 102.98103 26043 ft 462 kts 18°
2026-05-01 10:23 25.81644 102.99409 26447 ft 464 kts 18°
2026-05-01 10:24 25.87690 103.02044 27253 ft 469 kts 18°
2026-05-01 10:24 25.93790 103.04705 28016 ft 474 kts 18°
2026-05-01 10:25 25.99960 103.07403 28728 ft 479 kts 18°
2026-05-01 10:25 26.06225 103.10139 29442 ft 482 kts 18°
2026-05-01 10:26 26.09355 103.11503 29796 ft 485 kts 18°
2026-05-01 10:26 26.12504 103.12881 30110 ft 487 kts 18°
2026-05-01 10:26 26.18819 103.15653 30692 ft 488 kts 18°
2026-05-01 10:27 26.25108 103.18419 31609 ft 484 kts 17°
2026-05-01 10:27 26.31343 103.21159 31915 ft 477 kts 17°
2026-05-01 10:28 26.34420 103.22515 31915 ft 473 kts 17°
2026-05-01 10:28 26.43575 103.26544 31902 ft 471 kts 17°
2026-05-01 10:29 26.52695 103.30685 31888 ft 472 kts 20°
2026-05-01 10:30 26.64455 103.37372 31884 ft 475 kts 23°
2026-05-01 10:31 26.76236 103.44013 31871 ft 474 kts 21°
2026-05-01 10:32 26.85092 103.48929 31861 ft 474 kts 21°
2026-05-01 10:33 26.96880 103.55534 31840 ft 476 kts 22°
2026-05-01 10:34 27.05812 103.60562 31955 ft 476 kts 21°
2026-05-01 10:34 27.08772 103.62228 32200 ft 475 kts 21°
2026-05-01 10:34 27.11729 103.63887 32445 ft 475 kts 21°
2026-05-01 10:35 27.17623 103.67199 32799 ft 473 kts 21°
2026-05-01 10:35 27.20564 103.68852 32814 ft 472 kts 21°
2026-05-01 10:35 27.26424 103.72155 32802 ft 471 kts 21°
2026-05-01 10:36 27.35210 103.77071 32796 ft 469 kts 20°
2026-05-01 10:37 27.41154 103.80138 32771 ft 476 kts 18°
2026-05-01 10:37 27.50292 103.84760 32773 ft 482 kts 19°
2026-05-01 10:38 27.56382 103.87949 32771 ft 483 kts 19°
2026-05-01 10:38 27.62461 103.91161 32782 ft 483 kts 19°
2026-05-01 10:39 27.68555 103.94374 32798 ft 483 kts 19°
2026-05-01 10:39 27.74640 103.97574 32808 ft 483 kts 19°
2026-05-01 10:40 27.80734 104.00771 32827 ft 483 kts 19°
2026-05-01 10:40 27.86829 104.03978 32838 ft 484 kts 20°
2026-05-01 10:41 27.92929 104.07204 32851 ft 484 kts 20°
2026-05-01 10:42 28.01091 104.11520 32852 ft 484 kts 20°
2026-05-01 10:42 28.07198 104.14747 32850 ft 485 kts 20°
2026-05-01 10:43 28.13304 104.17983 32848 ft 484 kts 20°
2026-05-01 10:43 28.19410 104.21219 32852 ft 485 kts 20°
2026-05-01 10:44 28.25523 104.24464 32850 ft 485 kts 20°
2026-05-01 10:44 28.31632 104.27722 32849 ft 485 kts 20°
2026-05-01 10:45 28.37897 104.30309 32845 ft 474 kts
2026-05-01 10:45 28.44349 104.30738 32845 ft 460 kts 351°
2026-05-01 10:46 28.50749 104.30366 32856 ft 461 kts 351°
2026-05-01 10:46 28.57193 104.30015 32860 ft 460 kts 351°
2026-05-01 10:47 28.63595 104.29684 32860 ft 460 kts 351°
2026-05-01 10:47 28.69989 104.29340 32869 ft 460 kts 351°
2026-05-01 10:48 28.76390 104.28990 32871 ft 460 kts 351°
2026-05-01 10:48 28.82795 104.28631 32872 ft 461 kts 351°
2026-05-01 10:49 28.89195 104.28277 32873 ft 460 kts 351°
2026-05-01 10:49 28.95584 104.27928 32874 ft 460 kts 351°
2026-05-01 10:50 29.01978 104.27587 32870 ft 460 kts 351°
2026-05-01 10:50 29.08364 104.27240 32868 ft 459 kts 351°
2026-05-01 10:51 29.14742 104.26893 32874 ft 459 kts 350°
2026-05-01 10:51 29.21118 104.26535 32873 ft 458 kts 350°
2026-05-01 10:52 29.27496 104.26316 32873 ft 464 kts 357°
2026-05-01 10:52 29.33944 104.27325 32873 ft 468 kts
2026-05-01 10:53 29.40385 104.28425 32875 ft 468 kts
2026-05-01 10:53 29.46822 104.29522 32874 ft 467 kts
2026-05-01 10:54 29.53252 104.30613 32879 ft 467 kts
2026-05-01 10:54 29.59722 104.31713 32870 ft 467 kts
2026-05-01 10:55 29.66139 104.32806 32874 ft 467 kts
2026-05-01 10:55 29.72568 104.33903 32875 ft 467 kts
2026-05-01 10:56 29.78989 104.35002 32879 ft 467 kts
2026-05-01 10:56 29.85422 104.36106 32878 ft 467 kts
2026-05-01 10:57 29.91845 104.37200 32886 ft 467 kts
2026-05-01 10:57 29.98274 104.38299 32891 ft 467 kts
2026-05-01 10:58 30.04704 104.39403 32899 ft 467 kts
2026-05-01 10:58 30.11126 104.40509 32907 ft 467 kts
2026-05-01 10:59 30.17555 104.41618 32914 ft 467 kts
2026-05-01 10:59 30.23986 104.42744 32916 ft 467 kts
2026-05-01 11:00 30.30419 104.43872 32915 ft 467 kts
2026-05-01 11:00 30.36848 104.44998 32913 ft 467 kts
2026-05-01 11:01 30.43322 104.46128 32912 ft 468 kts
2026-05-01 11:01 30.49758 104.47253 32905 ft 468 kts
2026-05-01 11:02 30.56198 104.48375 32896 ft 467 kts
2026-05-01 11:02 30.62535 104.48210 32894 ft 449 kts 342°
2026-05-01 11:03 30.68436 104.46191 32900 ft 441 kts 334°
2026-05-01 11:03 30.74276 104.43944 32903 ft 442 kts 334°
2026-05-01 11:04 30.80130 104.41707 32903 ft 443 kts 335°
2026-05-01 11:04 30.86019 104.39526 32906 ft 448 kts 340°
2026-05-01 11:05 30.92324 104.38844 32916 ft 461 kts 352°
2026-05-01 11:05 30.98737 104.38696 32922 ft 461 kts 352°
2026-05-01 11:06 31.05153 104.38533 32923 ft 461 kts 352°
2026-05-01 11:06 31.11577 104.38361 32916 ft 462 kts 352°
2026-05-01 11:07 31.21206 104.38100 32944 ft 461 kts 352°
2026-05-01 11:07 31.27623 104.37912 32942 ft 461 kts 351°
2026-05-01 11:08 31.34015 104.37554 32946 ft 459 kts 350°
2026-05-01 11:09 31.43580 104.36909 32958 ft 459 kts 350°
2026-05-01 11:09 31.50000 104.36523 32957 ft 459 kts 351°
2026-05-01 11:10 31.59554 104.35977 32973 ft 458 kts 351°
2026-05-01 11:10 31.65909 104.35607 32978 ft 457 kts 351°
2026-05-01 11:11 31.72267 104.35238 32979 ft 457 kts 351°
2026-05-01 11:11 31.78618 104.34870 32987 ft 457 kts 352°
2026-05-01 11:12 31.84978 104.34534 32989 ft 456 kts 352°
2026-05-01 11:12 31.91318 104.34227 32996 ft 456 kts 353°
2026-05-01 11:13 31.94512 104.34501 32982 ft 467 kts
2026-05-01 11:13 31.97580 104.35829 32972 ft 477 kts 24°
2026-05-01 11:13 32.02358 104.39143 32967 ft 480 kts 27°
2026-05-01 11:14 32.08087 104.43222 32960 ft 482 kts 27°
2026-05-01 11:14 32.13884 104.47222 32953 ft 480 kts 18°
2026-05-01 11:15 32.17040 104.48314 32957 ft 469 kts
2026-05-01 11:15 32.20267 104.48847 32962 ft 469 kts
2026-05-01 11:15 32.26796 104.49829 32960 ft 470 kts
2026-05-01 11:16 32.33307 104.50794 32965 ft 473 kts
2026-05-01 11:16 32.39840 104.51743 32969 ft 473 kts
2026-05-01 11:17 32.46362 104.52200 33001 ft 462 kts 347°
2026-05-01 11:17 32.52579 104.50579 33022 ft 457 kts 341°
2026-05-01 11:18 32.58747 104.48852 33022 ft 455 kts 341°
2026-05-01 11:18 32.64898 104.47116 33003 ft 454 kts 341°
2026-05-01 11:19 32.71068 104.45379 32997 ft 456 kts 342°
2026-05-01 11:19 32.77255 104.43644 32995 ft 458 kts 342°
2026-05-01 11:20 32.83455 104.41898 32992 ft 458 kts 342°
2026-05-01 11:20 32.89701 104.40133 33187 ft 465 kts 341°
2026-05-01 11:21 32.92860 104.39238 33497 ft 468 kts 341°
2026-05-01 11:21 32.96026 104.38344 33876 ft 468 kts 341°
2026-05-01 11:21 32.99193 104.37451 34224 ft 468 kts 341°
2026-05-01 11:21 33.02364 104.36555 34568 ft 468 kts 341°
2026-05-01 11:22 33.05535 104.35657 34920 ft 468 kts 341°
2026-05-01 11:22 33.08703 104.34758 35276 ft 468 kts 341°
2026-05-01 11:22 33.11865 104.33861 35636 ft 467 kts 341°
2026-05-01 11:22 33.15022 104.32968 35940 ft 467 kts 340°
2026-05-01 11:23 33.21333 104.31176 36023 ft 465 kts 340°
2026-05-01 11:23 33.27683 104.29373 36023 ft 466 kts 340°
2026-05-01 11:24 33.33974 104.27536 36021 ft 463 kts 336°
2026-05-01 11:24 33.39705 104.24383 36026 ft 450 kts 323°
2026-05-01 11:25 33.42432 104.22511 36031 ft 452 kts 323°
2026-05-01 11:25 33.50624 104.16933 36031 ft 452 kts 324°
2026-05-01 11:26 33.59122 104.11975 36037 ft 464 kts 339°
2026-05-01 11:27 33.65627 104.11186 36041 ft 477 kts 354°
2026-05-01 11:27 33.72275 104.11205 36045 ft 478 kts 354°
2026-05-01 11:28 33.78919 104.11200 36045 ft 477 kts 354°
2026-05-01 11:28 33.85562 104.11194 36045 ft 478 kts 354°
2026-05-01 11:29 33.95531 104.11193 36053 ft 478 kts 354°
2026-05-01 11:30 34.05501 104.11184 36056 ft 477 kts 354°
2026-05-01 11:30 34.12144 104.11179 36064 ft 477 kts 354°
2026-05-01 11:31 34.18790 104.11184 36077 ft 477 kts 354°
2026-05-01 11:31 34.25433 104.11196 36013 ft 478 kts 354°
2026-05-01 11:31 34.28807 104.11196 35764 ft 478 kts 354°
2026-05-01 11:32 34.32129 104.11193 35527 ft 478 kts 354°
2026-05-01 11:32 34.35415 104.11194 35293 ft 478 kts 354°
2026-05-01 11:32 34.38780 104.11196 35063 ft 478 kts 354°
2026-05-01 11:32 34.42112 104.11199 34834 ft 479 kts 354°
2026-05-01 11:33 34.45447 104.11198 34591 ft 479 kts 354°
2026-05-01 11:33 34.48778 104.11193 34370 ft 479 kts 354°
2026-05-01 11:33 34.52114 104.11189 34154 ft 480 kts 354°
2026-05-01 11:33 34.55449 104.11187 33914 ft 480 kts 354°
2026-05-01 11:34 34.58794 104.11183 33662 ft 480 kts 354°
2026-05-01 11:34 34.62136 104.11181 33403 ft 481 kts 354°
2026-05-01 11:34 34.65486 104.11184 33151 ft 481 kts 355°
2026-05-01 11:34 34.68836 104.11191 32898 ft 482 kts 355°
2026-05-01 11:35 34.72187 104.11196 32648 ft 482 kts 354°
2026-05-01 11:35 34.75541 104.11197 32408 ft 482 kts 354°
2026-05-01 11:35 34.78899 104.11195 32157 ft 482 kts 354°
2026-05-01 11:35 34.82251 104.11193 31912 ft 483 kts 354°
2026-05-01 11:36 34.85618 104.11194 31677 ft 483 kts 354°
2026-05-01 11:36 34.88979 104.11193 31435 ft 484 kts 354°
2026-05-01 11:36 34.92351 104.11191 31201 ft 484 kts 354°
2026-05-01 11:36 34.95723 104.11190 30966 ft 485 kts 354°
2026-05-01 11:37 34.99097 104.11189 30740 ft 486 kts 354°
2026-05-01 11:37 35.02481 104.11189 30504 ft 486 kts 354°
2026-05-01 11:37 35.05870 104.11191 30278 ft 487 kts 354°
2026-05-01 11:37 35.09260 104.11191 30045 ft 488 kts 354°
2026-05-01 11:38 35.12654 104.11193 29776 ft 488 kts 354°
2026-05-01 11:38 35.16045 104.11196 29496 ft 486 kts 354°
2026-05-01 11:38 35.19423 104.11198 29244 ft 484 kts 354°
2026-05-01 11:38 35.22785 104.11199 28979 ft 482 kts 354°
2026-05-01 11:39 35.26133 104.11197 28726 ft 479 kts 354°
2026-05-01 11:39 35.29457 104.11196 28464 ft 477 kts 354°
2026-05-01 11:39 35.32775 104.11195 28216 ft 475 kts 354°
2026-05-01 11:39 35.36066 104.11195 27962 ft 473 kts 354°
2026-05-01 11:40 35.39353 104.11191 27720 ft 470 kts 354°
2026-05-01 11:40 35.42526 104.10643 27608 ft 452 kts 335°
2026-05-01 11:40 35.45320 104.08907 27649 ft 441 kts 321°
2026-05-01 11:40 35.47803 104.06723 27651 ft 439 kts 317°
2026-05-01 11:41 35.50317 104.04580 27659 ft 441 kts 320°
2026-05-01 11:41 35.52847 104.02453 27653 ft 441 kts 320°
2026-05-01 11:41 35.55382 104.00322 27657 ft 441 kts 320°
2026-05-01 11:41 35.57908 103.98197 27663 ft 441 kts 320°
2026-05-01 11:42 35.60444 103.96062 27659 ft 441 kts 320°
2026-05-01 11:42 35.62974 103.93931 27664 ft 441 kts 320°
2026-05-01 11:42 35.65417 103.91678 27663 ft 437 kts 314°
2026-05-01 11:42 35.67654 103.89162 27666 ft 434 kts 310°
2026-05-01 11:43 35.69749 103.86505 27666 ft 432 kts 307°
2026-05-01 11:43 35.71769 103.83768 27665 ft 431 kts 306°
2026-05-01 11:43 35.73766 103.81018 27669 ft 431 kts 307°
2026-05-01 11:44 35.77830 103.75565 27668 ft 432 kts 308°
2026-05-01 11:44 35.79897 103.72878 27667 ft 433 kts 308°
2026-05-01 11:44 35.81984 103.70203 27670 ft 433 kts 308°
2026-05-01 11:44 35.84075 103.67540 27670 ft 433 kts 309°
2026-05-01 11:45 35.86168 103.64872 27669 ft 433 kts 308°
2026-05-01 11:45 35.88259 103.62197 27668 ft 433 kts 308°
2026-05-01 11:45 35.90340 103.59522 27667 ft 433 kts 308°
2026-05-01 11:45 35.92421 103.56839 27600 ft 433 kts 308°
2026-05-01 11:46 35.94495 103.54158 27356 ft 431 kts 308°
2026-05-01 11:46 35.96557 103.51486 27111 ft 429 kts 308°
2026-05-01 11:46 35.98606 103.48828 26866 ft 427 kts 308°
2026-05-01 11:46 35.99985 103.47036 26700 ft 425 kts 308°
2026-05-01 11:47 36.02023 103.44394 26459 ft 423 kts 308°
2026-05-01 11:47 36.04045 103.41770 26222 ft 421 kts 308°
2026-05-01 11:47 36.06063 103.39148 25983 ft 419 kts 309°
2026-05-01 11:47 36.08066 103.36544 25748 ft 417 kts 309°
2026-05-01 11:48 36.10031 103.33915 25517 ft 414 kts 307°
2026-05-01 11:48 36.11919 103.31245 25290 ft 412 kts 306°
2026-05-01 11:48 36.13765 103.28542 25052 ft 410 kts 306°
2026-05-01 11:48 36.15584 103.25840 24822 ft 408 kts 306°
2026-05-01 11:49 36.17394 103.23150 24600 ft 406 kts 306°
2026-05-01 11:49 36.19208 103.20475 24380 ft 405 kts 306°
2026-05-01 11:49 36.21026 103.17818 24148 ft 404 kts 306°
2026-05-01 11:49 36.22846 103.15174 23929 ft 402 kts 307°
2026-05-01 11:50 36.24661 103.12545 23713 ft 401 kts 307°
2026-05-01 11:50 36.26472 103.09921 23361 ft 399 kts 307°
2026-05-01 11:50 36.28270 103.07313 22956 ft 396 kts 307°
2026-05-01 11:50 36.30054 103.04724 22566 ft 394 kts 307°
2026-05-01 11:51 36.31822 103.02148 22174 ft 391 kts 307°
2026-05-01 11:51 36.33580 102.99582 21789 ft 389 kts 307°
2026-05-01 11:51 36.35331 102.97029 21412 ft 387 kts 307°
2026-05-01 11:51 36.37068 102.94494 21037 ft 384 kts 307°
2026-05-01 11:52 36.38813 102.91948 20664 ft 380 kts 308°
2026-05-01 11:52 36.40458 102.89422 20292 ft 372 kts 303°
2026-05-01 11:52 36.41805 102.86725 19937 ft 364 kts 296°
2026-05-01 11:52 36.42833 102.83885 19582 ft 357 kts 289°
2026-05-01 11:53 36.43546 102.80964 19228 ft 350 kts 282°
2026-05-01 11:53 36.43962 102.78014 18879 ft 344 kts 278°
2026-05-01 11:53 36.44295 102.75098 18535 ft 338 kts 278°
2026-05-01 11:53 36.44629 102.72241 18313 ft 330 kts 278°
2026-05-01 11:54 36.45037 102.69472 18162 ft 325 kts 284°
2026-05-01 11:54 36.45771 102.66818 17996 ft 325 kts 292°
2026-05-01 11:54 36.46818 102.64338 17839 ft 326 kts 301°
2026-05-01 11:54 36.48164 102.62071 17685 ft 327 kts 309°
2026-05-01 11:55 36.49786 102.60079 17553 ft 329 kts 317°
2026-05-01 11:55 36.51560 102.58284 17429 ft 325 kts 319°
2026-05-01 11:55 36.53285 102.56539 17294 ft 315 kts 318°
2026-05-01 11:55 36.54954 102.54846 17164 ft 305 kts 318°
2026-05-01 11:56 36.56584 102.53187 17034 ft 300 kts 318°
2026-05-01 11:56 36.58163 102.51511 16907 ft 298 kts 314°
2026-05-01 11:56 36.59563 102.49624 16777 ft 296 kts 307°
2026-05-01 11:56 36.60511 102.48008 16676 ft 295 kts 301°
2026-05-01 11:57 36.61516 102.45818 16546 ft 288 kts 295°
2026-05-01 11:57 36.62278 102.43545 16418 ft 282 kts 288°
2026-05-01 11:57 36.62906 102.41234 16290 ft 282 kts 288°
2026-05-01 11:57 36.63537 102.38928 16160 ft 281 kts 288°
2026-05-01 11:58 36.64166 102.36628 16000 ft 281 kts 288°
2026-05-01 11:58 36.64795 102.34324 15822 ft 281 kts 288°
2026-05-01 11:58 36.66048 102.29718 15476 ft 281 kts 288°
2026-05-01 11:59 36.66675 102.27414 15300 ft 281 kts 288°
2026-05-01 11:59 36.67300 102.25121 15128 ft 280 kts 288°
2026-05-01 11:59 36.67924 102.22823 14961 ft 280 kts 288°
2026-05-01 12:00 36.69163 102.18238 14661 ft 279 kts 288°
2026-05-01 12:00 36.69781 102.15948 14539 ft 279 kts 288°
2026-05-01 12:00 36.70993 102.11462 14301 ft 267 kts 288°
2026-05-01 12:01 36.71586 102.09267 14177 ft 262 kts 288°
2026-05-01 12:01 36.72163 102.07124 14059 ft 260 kts 288°
2026-05-01 12:01 36.72737 102.04989 13942 ft 262 kts 288°
2026-05-01 12:01 36.73317 102.02828 13820 ft 264 kts 288°
2026-05-01 12:02 36.73902 102.00652 13712 ft 265 kts 288°
2026-05-01 12:02 36.74487 101.98475 13554 ft 265 kts 288°
2026-05-01 12:02 36.75073 101.96290 13420 ft 265 kts 288°
2026-05-01 12:02 36.75654 101.94115 13285 ft 265 kts 288°
2026-05-01 12:03 36.76235 101.91940 13161 ft 265 kts 288°
2026-05-01 12:03 36.76811 101.89787 13018 ft 257 kts 288°
2026-05-01 12:03 36.77237 101.87676 12894 ft 247 kts 274°
2026-05-01 12:03 36.77113 101.85585 12752 ft 238 kts 255°
2026-05-01 12:04 36.76488 101.83719 12634 ft 231 kts 240°
2026-05-01 12:04 36.75697 101.81984 12511 ft 228 kts 240°
2026-05-01 12:04 36.74919 101.80258 12377 ft 228 kts 240°
2026-05-01 12:04 36.74149 101.78543 12247 ft 225 kts 240°
2026-05-01 12:05 36.73404 101.76883 12115 ft 214 kts 240°
2026-05-01 12:05 36.71972 101.73691 11863 ft 210 kts 240°
2026-05-01 12:05 36.71143 101.72201 11737 ft 210 kts 227°
2026-05-01 12:06 36.70025 101.71051 11614 ft 209 kts 211°
2026-05-01 12:06 36.68699 101.70317 11490 ft 209 kts 198°
2026-05-01 12:06 36.67324 101.69737 11364 ft 209 kts 198°
2026-05-01 12:06 36.65933 101.69300 11239 ft 203 kts 184°
2026-05-01 12:07 36.64567 101.69432 11121 ft 193 kts 165°
2026-05-01 12:07 36.63371 101.70069 11041 ft 183 kts 147°
2026-05-01 12:07 36.62440 101.71069 10980 ft 171 kts 129°
2026-05-01 12:07 36.61813 101.72289 10980 ft 165 kts 114°
2026-05-01 12:08 36.61424 101.73625 10983 ft 163 kts 109°
2026-05-01 12:08 36.61056 101.74959 10984 ft 163 kts 109°
2026-05-01 12:08 36.60690 101.76290 10985 ft 162 kts 109°
2026-05-01 12:08 36.60324 101.77617 10986 ft 162 kts 109°
2026-05-01 12:09 36.59957 101.78949 10881 ft 162 kts 109°
2026-05-01 12:09 36.59588 101.80289 10715 ft 160 kts 109°
2026-05-01 12:09 36.59235 101.81568 10541 ft 154 kts 109°
2026-05-01 12:09 36.58891 101.82812 10346 ft 147 kts 109°
2026-05-01 12:10 36.58561 101.84006 10160 ft 145 kts 109°
2026-05-01 12:10 36.57916 101.86343 9799 ft 142 kts 108°
2026-05-01 12:10 36.57596 101.87497 9604 ft 141 kts 109°
2026-05-01 12:11 36.56960 101.89797 9214 ft 140 kts 108°
2026-05-01 12:11 36.56644 101.90939 9025 ft 140 kts 108°
2026-05-01 12:11 36.56325 101.92089 8830 ft 140 kts 108°
2026-05-01 12:12 36.56007 101.93237 8639 ft 140 kts 108°
2026-05-01 12:12 36.55689 101.94384 8455 ft 140 kts 109°
2026-05-01 12:12 36.55371 101.95534 8268 ft 140 kts 109°
2026-05-01 12:12 36.55053 101.96677 8085 ft 139 kts 109°
2026-05-01 12:13 36.54738 101.97811 7907 ft 139 kts 109°
2026-05-01 12:13 36.54425 101.98940 7728 ft 138 kts 109°
2026-05-01 12:13 36.54113 102.00065 7531 ft 136 kts 108°
2026-05-01 12:13 36.53810 102.01182 7401 ft 137 kts 107°
2026-05-01 12:14 36.53489 102.02291 7159 ft 132 kts 104°
2026-05-01 12:14 36.53239 102.03215 7155 ft 89 kts 109°
2026-05-01 12:14 36.53091 102.03745 7159 ft 48 kts 109°
2026-05-01 12:14 36.52988 102.04109 7161 ft 41 kts 111°
2026-05-01 12:15 36.52855 102.04333 7158 ft 24 kts 133°
2026-05-01 12:15 36.52760 102.04362 7157 ft 14 kts 230°
2026-05-01 12:15 36.52774 102.04262 7157 ft 11 kts 292°
2026-05-01 12:15 36.52797 102.04168 7157 ft 12 kts 291°
2026-05-01 12:16 36.52828 102.04067 7156 ft 13 kts 289°
2026-05-01 12:16 36.52793 102.03984 7157 ft 11 kts 195°
2026-05-01 12:16 36.52726 102.03959 7156 ft 8 kts 199°
2026-05-01 12:16 36.52669 102.03927 7156 ft 10 kts 226°
2026-05-01 12:17 36.52678 102.03854 7158 ft 9 kts 294°
2026-05-01 12:17 36.52728 102.03847 7156 ft 4 kts 23°
2026-05-01 12:17 36.52737 102.03850 7157 ft 1 kts 14°
2026-05-01 12:17 36.52743 102.03852 7156 ft 0 kts 17°